Location: Endfield
(51.6667°N, 0.0667°W)
Time: 04:17:00
(UTC+00:00)

USA 32 - Pass Details

Date: 19 May 2024
Orbit: 778 x 779 km, 85.0° (Epoch: 21 June)

Event Time Altitude Azimuth Distance (km) Brightness Sun altitude
Exits shadow 21:01:11 - 172° (S) 2,703 6.3 -8.7°
Reaches altitude 10° 21:02:10 10° 170° (S) 2,325 6.0 -8.8°
Maximum altitude 21:07:18 62° 91° (E) 879 4.1 -9.3°
Drops below altitude 10° 21:12:28 10° 12° (NNE) 2,343 7.1 -9.8°
Sets 21:14:51 0° 10° (N) 3,276 7.9 -10.1°
